Location: Gunung Kajang
(2.4167°N, 113.7167°E)
Time: 17:01:43
(UTC+00:00)

CENTAUR R/B - Pass Details

Date: 29 May 2022
Orbit: 716 x 1471 km, 63.4° (Epoch: 30 June)

Event Time Altitude Azimuth Distance (km) Brightness Sun altitude
Rises 13:34:48 0° 317° (NW) 4,562 6.8 -42.5°
Reaches altitude 10° 13:38:10 10° 308° (NW) 3,595 6.0 -43.2°
Enters shadow 13:45:41 32° 251° (WSW) 2,251 4.5 -44.7°
